Home   Weather   Sandnessjøen   Past weeks
Flag for Norway

Past Weather in Sandnessjøen, Norway — Yesterday and Last 2 Weeks

Now
45 °F

Scattered clouds.


Feels Like: 37 °F
Forecast: 42 / 36 °F
Wind: 16 mph from Southwest

Location: Sandnessjoen / Stokka

Current Time: Apr 7, 2020 at 4:10:39 pm

Latest Report: Apr 7, 2020 at 3:20 pm


Visibility: N/A

Pressure: 30.04 "Hg

Humidity: 76%

Dew Point: 37 °F

Location of SandnessjøenLocation

Past Weather in Sandnessjøen — Graph

°F

Sandnessjøen Temperature Yesterday

Maximum temperature yesterday: 52 °F (at 3:20 pm)
Minimum temperature yesterday: 37 °F (at 5:20 am)
Average temperature yesterday: 46 °F

High & Low Weather Summary for the Past Weeks

 TemperatureHumidityPressure
High52 °F (Apr 6, 3:20 pm)100% (Mar 25, 5:20 am)30.36 "Hg (Mar 25, 5:20 am)
Low25 °F (Mar 30, 5:50 am)40% (Apr 6, 6:20 pm)28.74 "Hg (Apr 2, 12:50 pm)
Average38 °F78%29.74 "Hg
* Reported Mar 23 1:20 pm — Apr 7 2:50 pm, Sandnessjøen. Weather by CustomWeather, © 2020

Note: Actual official high and low records may vary slightly from our data, if they occured in-between our weather recording intervals... More about our weather records

Sandnessjøen Weather History for the Previous 24 Hours

Scroll right to see more
 ConditionsComfort  
Time TempWeatherWind HumidityBarometerVisibility
2:50 pm
Tue, Apr 7
46 °FPassing clouds.15 mph71%30.04 "HgN/A
2:20 pm45 °FPassing clouds.15 mph76%30.01 "HgN/A
1:50 pm45 °FScattered showers. Scattered clouds.17 mph76%30.01 "HgN/A
12:50 pm41 °FScattered showers. Partly sunny.20 mph87%29.98 "HgN/A
12:20 pm41 °FScattered showers. Scattered clouds.12 mph87%29.98 "HgN/A
11:50 am43 °FSprinkles. Partly sunny.21 mph87%29.95 "HgN/A
11:20 am43 °FScattered showers. Scattered clouds.17 mph81%29.95 "HgN/A
10:50 am43 °FScattered showers. Broken clouds.15 mph87%29.92 "HgN/A
9:50 am45 °FScattered showers. Scattered clouds.17 mph81%29.92 "HgN/A
9:20 am45 °FScattered showers. Scattered clouds.16 mph81%29.89 "HgN/A
8:50 am43 °FScattered showers. Scattered clouds.14 mph87%29.89 "HgN/A
8:20 am43 °FScattered showers. Scattered clouds.15 mph87%29.89 "HgN/A
7:50 am43 °FScattered showers. Scattered clouds.16 mph87%29.86 "HgN/A
7:20 am43 °FScattered showers. Broken clouds.17 mph93%29.86 "HgN/A
6:50 am43 °FLight rain. Broken clouds.13 mph93%29.86 "HgN/A
5:50 am43 °FLight rain. Partly cloudy.16 mph93%29.83 "HgN/A
5:20 am43 °FPartly cloudy.15 mph93%29.83 "HgN/A
8:50 pm
Mon, Apr 6
43 °FClear.7 mph57%29.77 "Hg10 mi
8:20 pm46 °FSunny.6 mph46%29.77 "Hg10 mi
7:50 pm50 °FPassing clouds.8 mph40%29.77 "HgN/A
7:20 pm48 °FPassing clouds.8 mph46%29.77 "HgN/A
6:50 pm50 °FPassing clouds.6 mph40%29.77 "HgN/A
6:20 pm50 °FSunny.2 mph40%29.80 "Hg10 mi
5:50 pm48 °FPassing clouds.3 mph46%29.80 "HgN/A
5:20 pm45 °FSunny.3 mph61%29.83 "Hg10 mi
4:50 pm48 °FSunny.2 mph54%29.83 "Hg10 mi
4:20 pm50 °FSunny.6 mph43%29.83 "Hg10 mi
Weather by CustomWeather, © 2020

See weather overview

Advertising